KI0IO-2 Weather Reports


time (UTC)temp
C
wind
direction
speed
KPH
gust
KPH
rain 1hr
cm
rain 24hr
cm
rain mn
cm
humidity
%
barometer
mb
20260906215005 30 142 4.8 12.9 0.00 0.00 0.00 41 1003.5
20260906214505 30 116 4.8 11.3 0.00 0.00 0.00 40 1003.6
20260906213505 30 131 6.4 14.5 0.00 0.00 0.00 39 1003.8
20260906213005 30 130 3.2 19.3 0.00 0.00 0.00 38 1003.7
20260906212505 31 154 8.0 19.3 0.00 0.00 0.00 37 1003.9
20260906212006 31 146 8.0 16.1 0.00 0.00 0.00 34 1003.8
20260906211505 31 144 8.0 19.3 0.00 0.00 0.00 34 1003.8
20260906211005 30 175 9.7 19.3 0.00 0.00 0.00 38 1003.9
20260906210005 30 108 9.7 14.5 0.00 0.00 0.00 39 1004.1
20260906205505 30 120 3.2 11.3 0.00 0.00 0.00 38 1004.1
20260906205006 30 116 4.8 12.9 0.00 0.00 0.00 35 1004.1
20260906204505 30 122 4.8 19.3 0.00 0.00 0.00 35 1004.1
20260906203005 30 177 4.8 14.5 0.00 0.00 0.00 39 1004.3
20260906202505 30 125 6.4 14.5 0.00 0.00 0.00 40 1004.3
20260906202005 29 84 3.2 16.1 0.00 0.00 0.00 42 1004.4
20260906201005 29 77 9.7 19.3 0.00 0.00 0.00 42 1004.5
20260906200505 29 52 1.6 9.7 0.00 0.00 0.00 42 1004.4
20260906200005 28 49 3.2 16.1 0.00 0.00 0.00 40 1004.5
20260906195505 29 50 4.8 16.1 0.00 0.00 0.00 40 1004.6
20260906195006 29 83 4.8 16.1 0.00 0.00 0.00 40 1004.7
20260906194505 29 110 3.2 12.9 0.00 0.00 0.00 39 1004.7
20260906194005 29 111 1.6 11.3 0.00 0.00 0.00 41 1004.7
20260906193505 28 108 4.8 11.3 0.00 0.00 0.00 40 1004.8
20260906193005 28 90 3.2 11.3 0.00 0.00 0.00 41 1004.8
20260906192505 28 86 4.8 11.3 0.00 0.00 0.00 42 1004.9
20260906192005 28 89 1.6 14.5 0.00 0.00 0.00 43 1004.9
20260906191005 28 96 8.0 14.5 0.00 0.00 0.00 45 1005.1
20260906190505 28 146 3.2 12.9 0.00 0.00 0.00 46 1005.3
20260906190005 28 122 6.4 12.9 0.00 0.00 0.00 45 1005.3
20260906185005 27 158 3.2 11.3 0.00 0.00 0.00 47 1005.7
20260906184505 27 72 3.2 14.5 0.00 0.00 0.00 47 1005.7
20260906184005 27 103 6.4 14.5 0.00 0.00 0.00 47 1005.8
20260906183505 27 120 1.6 9.7 0.00 0.00 0.00 50 1005.9
20260906183005 27 114 1.6 4.8 0.00 0.00 0.00 49 1006.0
20260906182505 27 123 3.2 8.0 0.00 0.00 0.00 48 1006.1
20260906182005 27 119 3.2 12.9 0.00 0.00 0.00 48 1006.2
20260906181506 27 111 4.8 12.9 0.00 0.00 0.00 48 1006.2
20260906180505 27 131 1.6 9.7 0.00 0.00 0.00 49 1006.3
20260906180005 26 192 0.0 9.7 0.00 0.00 0.00 51 1006.5
20260906175505 26 129 1.6 11.3 0.00 0.00 0.00 51 1006.6
20260906175005 25 86 3.2 11.3 0.00 0.00 0.00 51 1006.6
20260906174505 25 88 4.8 12.9 0.00 0.00 0.00 53 1006.7
20260906174005 25 106 4.8 12.9 0.00 0.00 0.00 55 1006.8
20260906173505 25 132 6.4 14.5 0.00 0.00 0.00 53 1006.9
20260906172505 25 80 6.4 14.5 0.00 0.00 0.00 58 1007.0
20260906172005 25 75 3.2 14.5 0.00 0.00 0.00 58 1007.1
20260906171505 25 68 4.8 9.7 0.00 0.00 0.00 58 1007.2
20260906170505 24 79 6.4 14.5 0.00 0.00 0.00 59 1007.2
20260906170005 24 60 4.8 14.5 0.00 0.00 0.00 60 1007.3
20260906165005 23 61 3.2 8.0 0.00 0.00 0.00 61 1007.3
20260906164005 23 323 1.6 8.0 0.00 0.00 0.00 63 1007.3
20260906162505 22 40 1.6 9.7 0.00 0.00 0.00 65 1007.2
20260906162005 22 40 1.6 9.7 0.00 0.00 0.00 65 1007.2
20260906161005 22 69 0.0 8.0 0.00 0.00 0.00 65 1007.3
20260906160505 22 32 1.6 8.0 0.00 0.00 0.00 66 1007.3
20260906160005 22 44 1.6 11.3 0.00 0.00 0.00 67 1007.4
20260906155505 22 68 0.0 11.3 0.00 0.00 0.00 67 1007.3
20260906155005 21 70 4.8 11.3 0.00 0.00 0.00 68 1007.3
20260906154505 21 317 3.2 11.3 0.00 0.00 0.00 69 1007.4
20260906154005 21 49 1.6 12.9 0.00 0.00 0.00 69 1007.3
20260906153505 21 49 8.0 12.9 0.00 0.00 0.00 70 1007.3
20260906153005 21 79 4.8 11.3 0.00 0.00 0.00 70 1007.4
20260906152505 21 40 0.0 11.3 0.00 0.00 0.00 71 1007.4
20260906152004 20 49 3.2 11.3 0.00 0.00 0.00 72 1007.4
20260906151505 20 66 3.2 9.7 0.00 0.00 0.00 72 1007.4
20260906151005 20 84 1.6 11.3 0.00 0.00 0.00 74 1007.4
20260906150505 20 71 6.4 11.3 0.00 0.00 0.00 74 1007.5
20260906150005 20 89 4.8 9.7 0.00 0.00 0.00 74 1007.5
20260906145004 20 54 0.0 8.0 0.00 0.00 0.00 74 1007.5
20260906144504 20 51 0.0 8.0 0.00 0.00 0.00 73 1007.4
20260906143505 20 53 0.0 4.8 0.00 0.00 0.00 73 1007.2
20260906143004 20 59 1.6 4.8 0.00 0.00 0.00 71 1007.3
20260906142004 20 62 0.0 4.8 0.00 0.00 0.00 73 1007.3
20260906141004 19 44 1.6 8.0 0.00 0.00 0.00 74 1007.4
20260906140004 18 49 1.6 9.7 0.00 0.00 0.00 75 1007.4
20260906135005 18 5 0.0 3.2 0.00 0.00 0.00 78 1007.5
20260906134505 17 5 0.0 3.2 0.00 0.00 0.00 80 1007.4
20260906134004 17 5 0.0 3.2 0.00 0.00 0.00 82 1007.4
20260906133505 17 5 0.0 0.0 0.00 0.00 0.00 83 1007.5
20260906133005 16 5 0.0 1.6 0.00 0.00 0.00 84 1007.3
20260906132504 16 5 0.0 1.6 0.00 0.00 0.00 85 1007.2
20260906131004 16 32 0.0 0.0 0.00 0.00 0.00 85 1007.2
20260906130505 16 32 0.0 0.0 0.00 0.00 0.00 86 1007.2
20260906125505 16 32 0.0 0.0 0.00 0.00 0.00 85 1007.1
20260906125005 16 32 0.0 0.0 0.00 0.00 0.00 85 1007.1
20260906124004 16 32 0.0 0.0 0.00 0.00 0.00 84 1007.1
20260906123505 16 32 0.0 0.0 0.00 0.00 0.00 83 1007.1
20260906123005 16 32 0.0 0.0 0.00 0.00 0.00 83 1007.0
20260906122504 16 32 0.0 0.0 0.00 0.00 0.00 83 1006.9
20260906122004 16 32 0.0 1.6 0.00 0.00 0.00 82 1007.1
20260906121504 17 32 0.0 3.2 0.00 0.00 0.00 82 1007.1
20260906121004 17 32 0.0 3.2 0.00 0.00 0.00 82 1007.1
20260906120504 17 32 0.0 3.2 0.00 0.00 0.00 82 1007.0
20260906120004 17 32 0.0 0.0 0.00 0.00 0.00 81 1007.0
20260906115505 17 32 0.0 0.0 0.00 0.00 0.00 81 1007.2
20260906115004 17 32 0.0 3.2 0.00 0.00 0.00 80 1007.2
20260906114504 17 32 0.0 3.2 0.00 0.00 0.00 80 1007.1
20260906114004 17 32 0.0 3.2 0.00 0.00 0.00 79 1007.2
20260906113004 17 32 0.0 3.2 0.00 0.00 0.00 78 1007.2
20260906112005 17 32 0.0 0.0 0.00 0.00 0.00 76 1007.1
20260906111504 17 32 0.0 3.2 0.00 0.00 0.00 76 1007.1
20260906111004 17 32 0.0 4.8 0.00 0.00 0.00 76 1007.1
20260906110504 17 32 1.6 4.8 0.00 0.00 0.00 76 1007.1
20260906110004 17 32 1.6 4.8 0.00 0.00 0.00 75 1007.1
20260906105504 17 32 1.6 4.8 0.00 0.00 0.00 75 1007.2
20260906105004 17 32 3.2 4.8 0.00 0.00 0.00 75 1007.2
20260906104504 17 55 0.0 3.2 0.00 0.00 0.00 74 1007.1
20260906103504 17 55 0.0 1.6 0.00 0.00 0.00 72 1007.2
20260906103004 17 55 0.0 0.0 0.00 0.00 0.00 71 1007.1
20260906102504 17 55 0.0 1.6 0.00 0.00 0.00 71 1007.1
20260906102005 17 55 0.0 1.6 0.00 0.00 0.00 71 1007.2
20260906101505 17 55 0.0 1.6 0.00 0.00 0.00 70 1007.3
20260906101004 18 55 0.0 0.0 0.00 0.00 0.00 69 1007.2
20260906100504 18 55 0.0 0.0 0.00 0.00 0.00 68 1007.0
20260906100004 18 55 0.0 0.0 0.00 0.00 0.00 68 1007.0
20260906095004 18 55 0.0 0.0 0.00 0.00 0.00 67 1007.0
20260906094504 18 55 0.0 0.0 0.00 0.00 0.00 67 1006.7
20260906094005 18 55 0.0 4.8 0.00 0.00 0.00 66 1006.8
20260906093504 18 55 0.0 4.8 0.00 0.00 0.00 65 1006.7
20260906093004 18 55 1.6 4.8 0.00 0.00 0.00 65 1006.8
20260906092504 18 55 0.0 8.0 0.00 0.00 0.00 65 1006.8
20260906092004 18 55 3.2 8.0 0.00 0.00 0.00 65 1006.7
20260906091504 19 55 1.6 4.8 0.00 0.00 0.00 65 1006.6
20260906091004 19 55 0.0 4.8 0.00 0.00 0.00 64 1006.5
20260906090004 19 56 1.6 4.8 0.00 0.00 0.00 64 1006.5
20260906085504 19 55 0.0 4.8 0.00 0.00 0.00 63 1006.4
20260906085005 19 55 1.6 4.8 0.00 0.00 0.00 63 1006.5
20260906084505 20 57 0.0 4.8 0.00 0.00 0.00 61 1006.5
20260906083004 20 59 4.8 9.7 0.00 0.00 0.00 58 1006.4
20260906082004 20 58 3.2 9.7 0.00 0.00 0.00 57 1006.5
20260906081504 20 59 4.8 8.0 0.00 0.00 0.00 56 1006.5
20260906081004 20 57 0.0 8.0 0.00 0.00 0.00 57 1006.5
20260906080504 20 57 1.6 4.8 0.00 0.00 0.00 56 1006.6
20260906080006 20 57 0.0 4.8 0.00 0.00 0.00 56 1006.6
20260906075506 20 57 0.0 9.7 0.00 0.00 0.00 56 1006.6
20260906075006 20 57 0.0 9.7 0.00 0.00 0.00 56 1006.7
20260906074506 20 59 4.8 9.7 0.00 0.00 0.00 55 1006.7
20260906073506 20 106 1.6 3.2 0.00 0.00 0.00 56 1006.6
20260906073006 20 106 0.0 4.8 0.00 0.00 0.00 55 1006.6
20260906072506 20 106 1.6 9.7 0.00 0.00 0.00 56 1006.6
20260906072006 20 104 0.0 9.7 0.00 0.00 0.00 56 1006.5
20260906071506 20 113 3.2 9.7 0.00 0.00 0.00 56 1006.3
20260906070506 20 272 3.2 4.8 0.00 0.00 0.00 56 1006.3
20260906070007 20 272 1.6 4.8 0.00 0.00 0.00 55 1006.5
20260906065506 20 272 1.6 8.0 0.00 0.00 0.00 55 1006.4
20260906065006 20 272 3.2 8.0 0.00 0.00 0.00 54 1006.3
20260906064506 21 271 4.8 8.0 0.00 0.00 0.00 52 1006.3
20260906064006 21 271 0.0 4.8 0.00 0.00 0.00 51 1006.5
20260906063506 21 271 0.0 8.0 0.00 0.00 0.00 50 1006.8
20260906063006 21 271 1.6 8.0 0.00 0.00 0.00 49 1006.8
20260906062506 21 271 4.8 8.0 0.00 0.00 0.00 49 1006.7
20260906062006 21 271 0.0 4.8 0.00 0.00 0.00 50 1006.7
20260906061506 21 271 1.6 8.0 0.00 0.00 0.00 50 1006.6
20260906061007 21 271 0.0 9.7 0.00 0.00 0.00 50 1006.6
20260906060504 21 271 4.8 9.7 0.00 0.00 0.00 50 1006.5
20260906060005 21 264 4.8 9.7 0.00 0.00 0.00 50 1006.5
20260906054504 22 101 1.6 8.0 0.00 0.00 0.00 51 1006.5
20260906054005 22 101 0.0 4.8 0.00 0.00 0.00 50 1006.5
20260906053506 22 101 1.6 4.8 0.00 0.00 0.00 49 1006.4
20260906052506 22 101 0.0 3.2 0.00 0.00 0.00 50 1006.6
20260906052006 22 101 0.0 4.8 0.00 0.00 0.00 50 1006.6
20260906051506 22 104 1.6 8.0 0.00 0.00 0.00 50 1006.6
20260906051006 22 105 0.0 11.3 0.00 0.00 0.00 48 1006.5
20260906050506 22 104 6.4 11.3 0.00 0.00 0.00 47 1006.4
20260906050006 22 103 1.6 11.3 0.00 0.00 0.00 46 1006.1
20260906045006 22 246 3.2 9.7 0.00 0.00 0.00 47 1005.8
20260906044506 22 157 1.6 9.7 0.00 0.00 0.00 47 1005.7
20260906044006 22 105 1.6 4.8 0.00 0.00 0.00 47 1005.7
20260906043506 22 104 1.6 4.8 0.00 0.00 0.00 46 1005.7
20260906043006 22 102 1.6 4.8 0.00 0.00 0.00 45 1005.6
20260906042506 23 98 1.6 4.8 0.00 0.00 0.00 44 1005.5
20260906042006 23 45 3.2 11.3 0.00 0.00 0.00 43 1005.4
20260906041506 23 294 1.6 11.3 0.00 0.00 0.00 42 1005.1
20260906041006 23 281 1.6 8.0 0.00 0.00 0.00 43 1004.9
20260906040506 23 280 1.6 8.0 0.00 0.00 0.00 44 1005.0
20260906035506 23 276 3.2 8.0 0.00 0.00 0.00 43 1005.2
20260906035006 23 273 0.0 4.8 0.00 0.00 0.00 42 1005.3
20260906034506 24 273 1.6 4.8 0.00 0.00 0.00 42 1005.3
20260906034006 24 273 0.0 3.2 0.00 0.00 0.00 40 1005.4
20260906033506 25 273 1.6 3.2 0.00 0.00 0.00 39 1005.4
20260906033006 25 273 0.0 3.2 0.00 0.00 0.00 38 1005.2
20260906032506 25 273 0.0 8.0 0.00 0.00 0.00 38 1005.2
20260906032006 25 273 1.6 9.7 0.00 0.00 0.00 38 1005.1
20260906030505 25 45 1.6 4.8 0.00 0.00 0.00 40 1005.1
20260906025506 25 69 1.6 9.7 0.00 0.00 0.00 39 1004.7
20260906025006 25 27 1.6 9.7 0.00 0.00 0.00 38 1004.6
20260906024006 25 335 4.8 12.9 0.00 0.00 0.00 38 1004.4
20260906023006 25 355 1.6 8.0 0.00 0.00 0.00 38 1004.2
20260906022506 25 355 0.0 8.0 0.00 0.00 0.00 38 1004.2
20260906022006 26 359 1.6 9.7 0.00 0.00 0.00 38 1004.2
20260906021505 26 14 4.8 11.3 0.00 0.00 0.00 37 1004.2
20260906021006 26 321 4.8 14.5 0.00 0.00 0.00 37 1004.1
20260906020506 26 319 8.0 20.9 0.00 0.00 0.00 36 1004.0
20260906015506 26 319 11.3 20.9 0.00 0.00 0.00 36 1004.0
20260906015005 26 298 8.0 14.5 0.00 0.00 0.00 36 1004.0
20260906014006 26 316 6.4 14.5 0.00 0.00 0.00 35 1003.9
20260906013505 26 318 8.0 14.5 0.00 0.00 0.00 35 1003.9
20260906013005 26 322 8.0 16.1 0.00 0.00 0.00 35 1003.9
20260906012005 27 319 8.0 16.1 0.00 0.00 0.00 35 1004.0
20260906011505 27 320 8.0 16.1 0.00 0.00 0.00 34 1004.0
20260906011005 27 344 4.8 22.5 0.00 0.00 0.00 34 1004.0
20260906010006 27 314 9.7 22.5 0.00 0.00 0.00 34 1004.1
20260906005506 27 309 9.7 19.3 0.00 0.00 0.00 34 1004.2
20260906005005 27 320 11.3 20.9 0.00 0.00 0.00 33 1004.2
20260906003506 28 318 8.0 16.1 0.00 0.00 0.00 30 1004.4
20260906003006 29 312 4.8 12.9 0.00 0.00 0.00 30 1004.4
20260906002506 29 293 6.4 14.5 0.00 0.00 0.00 29 1004.3
20260906001005 30 305 9.7 25.7 0.00 0.00 0.00 28 1004.0
20260906000006 30 319 11.3 25.7 0.00 0.00 0.00 27 1004.0
20260905235505 30 317 11.3 25.7 0.00 0.00 0.00 27 1003.9
20260905234006 31 327 3.2 8.0 0.00 0.00 0.00 29 1003.7
20260905233006 31 115 0.0 0.0 0.00 0.00 0.00 36 1003.6
20260905232505 31 115 0.0 0.0 0.00 0.00 0.00 35 1003.6
20260905232005 31 115 0.0 0.0 0.00 0.00 0.00 32 1003.5
20260905231505 31 115 0.0 1.6 0.00 0.00 0.00 32 1003.5
20260905231005 31 115 0.0 3.2 0.00 0.00 0.00 32 1003.5
20260905230505 31 115 1.6 3.2 0.00 0.00 0.00 28 1003.5
20260905230005 31 115 0.0 3.2 0.00 0.00 0.00 28 1003.4
20260905225006 31 115 0.0 3.2 0.00 0.00 0.00 26 1003.3
20260905224505 31 115 0.0 3.2 0.00 0.00 0.00 27 1003.4
20260905224005 31 115 0.0 1.6 0.00 0.00 0.00 28 1003.4
20260905223505 31 115 0.0 8.0 0.00 0.00 0.00 26 1003.4
20260905223005 32 115 1.6 9.7 0.00 0.00 0.00 25 1003.4
20260905222505 32 115 3.2 12.9 0.00 0.00 0.00 26 1003.3
20260905222005 32 113 6.4 12.9 0.00 0.00 0.00 24 1003.4
20260905221505 32 108 1.6 12.9 0.00 0.00 0.00 24 1003.4
20260905221005 32 108 4.8 12.9 0.00 0.00 0.00 24 1003.4
20260905220505 32 108 6.4 12.9 0.00 0.00 0.00 23 1003.4
20260905220006 33 107 6.4 12.9 0.00 0.00 0.00 22 1003.4
20260905215506 33 129 4.8 14.5 0.00 0.00 0.00 22 1003.5